Billund, Denmark

1:08 PM CEST on May 29, 2017 (GMT +0200)
Billund

Weather History for EKBI - October, 2012

Change the Weather History Date:

Monday, October 29, 2012

  Actual Average Record
Temperature  
Mean Temperature 42 °F -  
Max Temperature 46 °F 43 °F 59 °F (2005)
Min Temperature 37 °F 34 °F 32 °F (2008)
Degree Days  
Heating Degree Days 24    
Moisture  
Dew Point 41 °F    
Average Humidity 93    
Maximum Humidity 100    
Minimum Humidity 87    
Precipitation  
Precipitation 0.00 in - - ()
Sea Level Pressure  
Sea Level Pressure 29.60 in    
Wind  
Wind Speed 11 mph ()    
Max Wind Speed 16 mph    
Max Gust Speed 31 mph    
Visibility 4.9 miles    
Events Rain    
Averages and records for this station are not official NWS values.
T = Trace of Precipitation, MM = Missing Value Source: Averaged Metar Reports

Daily Weather History Graph

Daily Weather History Graph

Search for Another Location

Airport or City:

Trip Planner

Search our weather history database for the weather conditions in past years. The results will help you decide how hot, cold, wet, or windy it might be!

Date:

Astronomy

Oct. 29, 2012 Rise Set
Actual Time 7:23 AM CET 4:49 PM CET
Civil Twilight 6:44 AM CET 5:28 PM CET
Nautical Twilight 6:01 AM CET 6:11 PM CET
Astronomical Twilight 5:18 AM CET 6:54 PM CET
Moon 4:25 PM CET 7:01 AM CET
Length of Visible Light 10h 43m
Length of Day
9h 25m
Full, 100% of the Moon is Illuminated
Oct 29
Full
Oct 29
Full
Nov 7
Last Quarter
Nov 13
New
Nov 20
First Quarter

Hourly Weather History & Observations

Time (CET) Temp. Windchill Dew Point Humidity Pressure Visibility Wind Dir Wind Speed Gust Speed Precip Events Conditions
12:20 AM 41.0 °F 34.3 °F 37.4 °F 87% 29.80 in 6.2 mi South 11.5 mph - N/A   Mostly Cloudy
12:50 AM 41.0 °F 33.9 °F 37.4 °F 87% 29.80 in 6.2 mi South 12.7 mph - N/A   Mostly Cloudy
1:20 AM 41.0 °F 34.7 °F 37.4 °F 87% 29.80 in - South 10.4 mph - N/A   Clear
1:50 AM 41.0 °F 33.5 °F 37.4 °F 87% 29.77 in - South 13.8 mph - N/A   Clear
2:20 AM 41.0 °F 33.9 °F 37.4 °F 87% 29.77 in - South 12.7 mph - N/A   Clear
2:50 AM 41.0 °F 33.9 °F 37.4 °F 87% 29.74 in - South 12.7 mph - N/A   Clear
3:20 AM 41.0 °F 33.9 °F 37.4 °F 87% 29.74 in 6.2 mi South 12.7 mph 24.2 mph N/A Rain Light Rain
3:50 AM 41.0 °F 33.9 °F 37.4 °F 87% 29.74 in 6.2 mi South 12.7 mph 24.2 mph N/A Rain Light Rain
4:20 AM 41.0 °F 33.9 °F 37.4 °F 87% 29.74 in 6.2 mi South 12.7 mph - N/A Rain Light Rain
4:50 AM 41.0 °F 33.9 °F 39.2 °F 93% 29.71 in 5.0 mi South 12.7 mph - N/A Rain Light Rain
5:20 AM 39.2 °F 31.6 °F 37.4 °F 93% 29.71 in 4.3 mi South 12.7 mph - N/A Rain Light Rain
5:50 AM 39.2 °F 30.5 °F 37.4 °F 93% 29.68 in 3.7 mi South 16.1 mph - N/A Rain Light Rain
6:20 AM 39.2 °F 30.8 °F 39.2 °F 100% 29.68 in 3.7 mi South 15.0 mph - N/A Rain Light Rain
6:50 AM 39.2 °F 30.8 °F 39.2 °F 100% 29.65 in 3.7 mi South 15.0 mph 27.6 mph N/A Rain Light Rain
7:20 AM 39.2 °F 30.5 °F 39.2 °F 100% 29.65 in 3.7 mi South 16.1 mph - N/A Rain Light Rain
7:50 AM 39.2 °F 30.5 °F 39.2 °F 100% 29.65 in 3.1 mi South 16.1 mph 31.1 mph N/A Rain Light Rain
8:20 AM 41.0 °F 32.8 °F 39.2 °F 93% 29.65 in 3.1 mi South 16.1 mph - N/A Rain Light Rain
8:50 AM 41.0 °F 32.8 °F 39.2 °F 93% 29.62 in 2.8 mi South 16.1 mph 27.6 mph N/A Rain Light Drizzle
9:20 AM 41.0 °F 32.8 °F 39.2 °F 93% 29.62 in 2.8 mi South 16.1 mph - N/A Rain Light Drizzle
9:50 AM 41.0 °F 32.8 °F 41.0 °F 100% 29.62 in 3.1 mi South 16.1 mph - N/A Rain Light Drizzle
10:20 AM 42.8 °F 35.8 °F 41.0 °F 93% 29.62 in 3.7 mi South 13.8 mph - N/A Rain Light Drizzle
10:50 AM 42.8 °F 35.8 °F 41.0 °F 93% 29.59 in 4.3 mi South 13.8 mph - N/A Rain Light Drizzle
11:20 AM 42.8 °F 36.2 °F 41.0 °F 93% 29.59 in 4.3 mi South 12.7 mph - N/A Rain Light Drizzle
11:50 AM 42.8 °F 36.2 °F 41.0 °F 93% 29.59 in 3.1 mi South 12.7 mph - N/A Rain Light Rain
12:20 PM 42.8 °F 37.5 °F 42.8 °F 100% 29.59 in 4.3 mi South 9.2 mph - N/A Rain Light Rain
12:50 PM 44.6 °F 40.2 °F 42.8 °F 93% 29.56 in 4.3 mi South 8.1 mph - N/A Rain Light Rain
1:20 PM 46.4 °F 40.7 °F 44.6 °F 93% 29.56 in 4.3 mi SSW 12.7 mph - N/A Rain Light Rain
1:50 PM 46.4 °F 41.5 °F 44.6 °F 93% 29.56 in 4.3 mi SSW 10.4 mph - N/A Rain Light Rain
2:20 PM 46.4 °F 42.4 °F 44.6 °F 93% 29.56 in 4.3 mi South 8.1 mph - N/A Rain Light Rain
2:50 PM 46.4 °F 41.5 °F 44.6 °F 93% 29.56 in 3.7 mi SSW 10.4 mph - N/A Rain Light Rain
3:20 PM 44.6 °F 40.2 °F 44.6 °F 100% 29.53 in 5.0 mi SSW 8.1 mph - N/A Rain Light Rain Showers
3:50 PM 46.4 °F 41.5 °F 44.6 °F 93% 29.53 in 5.6 mi SSW 10.4 mph - N/A Rain Light Rain Showers
4:20 PM 46.4 °F 42.4 °F 44.6 °F 93% 29.50 in 5.0 mi South 8.1 mph - N/A Rain Light Rain Showers
4:50 PM 46.4 °F 41.5 °F 44.6 °F 93% 29.50 in 5.0 mi South 10.4 mph - N/A Rain Light Rain Showers
5:20 PM 44.6 °F 39.7 °F 42.8 °F 93% 29.50 in 6.2 mi South 9.2 mph - N/A   Mostly Cloudy
5:50 PM 44.6 °F 40.2 °F 42.8 °F 93% 29.50 in 6.2 mi SSW 8.1 mph - N/A Rain Light Rain Showers
6:20 PM 44.6 °F 40.2 °F 42.8 °F 93% 29.50 in 6.2 mi SSW 8.1 mph - N/A Rain Light Rain Showers
6:50 PM 44.6 °F 40.2 °F 42.8 °F 93% 29.50 in 6.2 mi SSW 8.1 mph - N/A Rain Light Rain Showers
7:20 PM 44.6 °F 40.2 °F 42.8 °F 93% 29.50 in 6.2 mi SSW 8.1 mph - N/A Rain Light Rain Showers
7:50 PM 44.6 °F 40.7 °F 42.8 °F 93% 29.50 in 6.2 mi SW 6.9 mph - N/A Rain Light Rain Showers
8:20 PM 44.6 °F 41.4 °F 42.8 °F 93% 29.50 in 6.2 mi WSW 5.8 mph - N/A Rain Light Rain Showers
8:50 PM 44.6 °F 41.4 °F 42.8 °F 93% 29.50 in 6.2 mi WSW 5.8 mph - N/A   Mostly Cloudy
9:20 PM 42.8 °F 38.0 °F 42.8 °F 100% 29.50 in 6.2 mi WNW 8.1 mph - N/A   Mostly Cloudy
9:50 PM 42.8 °F 41.1 °F 41.0 °F 93% 29.50 in 6.2 mi West 3.5 mph - N/A   Mostly Cloudy
10:20 PM 41.0 °F 38.0 °F 39.2 °F 93% 29.50 in 6.2 mi West 4.6 mph - N/A   Mostly Cloudy
10:50 PM 39.2 °F 37.0 °F 37.4 °F 93% 29.50 in 6.2 mi West 3.5 mph - N/A   Mostly Cloudy
11:20 PM 37.4 °F 32.8 °F 35.6 °F 93% 29.50 in 6.2 mi West 5.8 mph - N/A   Mostly Cloudy
11:50 PM 37.4 °F 33.8 °F 35.6 °F 93% 29.50 in - West 4.6 mph - N/A   Clear